Flag for U.S.A. Weather past 2 weeks in Greenville, South Carolina, U.S.A.

Now
84 °F

Partly sunny.


Feels Like: 88 °F
Forecast: 72 / 86 °F
Wind: 6 mph from Southwest

Location: Greenville Downtown Airport

Current Time: Jul 23, 2014 at 8:36:15 PM

Latest Report: Jul 23, 2014 at 7:53 PM


Visibility: 10 mi

Pressure: 29.96 "Hg

Humidity: 61%

Dew point: 69 °F

Location of GreenvilleLocation

Historic Weather in Greenville — Graph

°F

Greenville temperature yesterday

Maximum temperature yesterday: 79 °F (at 7:53 PM)
Minimum temperature yesterday: 71 °F (at 5:53 AM)
Average temperature yesterday: 74 °F

Past Weeks' High & Low Weather Summary

 TemperatureHumidityPressure
High92 °F (Jul 14, 1:53 PM)93% (Jul 11, 6:53 AM)30.23 "Hg (Jul 11, 6:53 AM)
Low65 °F (Jul 19, 9:53 PM)37% (Jul 17, 12:53 PM)29.76 "Hg (Jul 15, 5:53 PM)
Average76 °F72%30.06 "Hg
* Reported Jul 8 6:53 PM — Jul 23 6:53 PM, Greenville, Weather by CustomWeather, © 2014

Note: Actual official high and low records may vary slightly from our data, if they occured in-between our weather recording intervals... More about our weather records

Advertising

Greenville weather history for previous 24 hours

 ConditionsComfort  
Time TempWeatherWind HumidityBarometerVisibility
6:53 PM
Jul 23
85 °FSunny.8 mph59%29.96 "Hg10 mi
5:53 PM87 °FSunny.10 mph53%29.96 "Hg10 mi
4:53 PM88 °FPassing clouds.9 mph52%29.97 "Hg10 mi
3:53 PM89 °FScattered clouds.13 mph52%29.98 "Hg10 mi
2:53 PM88 °FScattered clouds.9 mph54%30.01 "Hg10 mi
1:53 PM86 °FBroken clouds.6 mph55%30.03 "Hg10 mi
12:53 PM86 °FScattered clouds.3 mph57%30.05 "Hg10 mi
11:53 AM84 °FPassing clouds.6 mph61%30.07 "Hg10 mi
10:53 AM83 °FSunny.5 mph65%30.09 "Hg10 mi
9:53 AM80 °FSunny.6 mph71%30.10 "Hg10 mi
8:53 AM78 °FSunny.3 mph76%30.10 "Hg10 mi
6:53 AM72 °FPassing clouds.No wind91%30.09 "Hg10 mi
5:53 AM73 °FPassing clouds.No wind88%30.08 "Hg10 mi
4:53 AM73 °FOvercast.No wind88%30.07 "Hg10 mi
12:53 AM74 °FPassing clouds.3 mph85%30.12 "Hg10 mi
11:53 PM
Jul 22
75 °FMostly cloudy.5 mph85%30.13 "Hg10 mi
10:53 PM75 °FMostly cloudy.6 mph85%30.13 "Hg10 mi
9:53 PM76 °FPassing clouds.5 mph82%30.12 "Hg10 mi
8:53 PM77 °FSunny.5 mph82%30.10 "Hg10 mi
Weather by CustomWeather, © 2014

See weather overviewHow to use our weather pages